Simultaneous Nadir Overpasses (SNOs) Predictions

Prediction of SNOs between AQUA and METOP-A Satellite Orbit:

Table of predicted SNOs for the next 14.0 days since TLE Epoch: 6/15/2012
Index Date (AQUA) Time (AQUA) AQUA Lat,Lon Date (METOP-A) Time (METOP-A) METOP-A Lat,Lon Distance(km) Time Diff (sec)
1 06/15/2012 14:23:02 73.79, -41.36 06/15/2012 14:22:14 73.78, -41.43 2.41 48
2 06/15/2012 15:12:29 -73.86, 126.12 06/15/2012 15:12:54 -73.89, 126.16 2.81 25
3 06/18/2012 09:57:14 73.79, 25.09 06/18/2012 09:56:35 73.81, 25.06 2.60 39
4 06/18/2012 10:46:41 -73.86,-167.44 06/18/2012 10:47:16 -73.87,-167.47 1.51 35
5 06/21/2012 05:31:25 73.82, 91.46 06/21/2012 05:30:55 73.84, 91.54 3.08 30
6 06/21/2012 06:20:52 -73.90,-101.06 06/21/2012 06:21:36 -73.91,-100.97 2.96 44
7 06/24/2012 00:15:58 -73.29, -8.59 06/24/2012 00:14:50 -73.21, -10.82 71.86 68
8 06/24/2012 01:05:36 73.84, 157.86 06/24/2012 01:05:17 73.82, 157.90 3.03 19
9 06/24/2012 01:55:03 -73.91, -34.65 06/24/2012 01:55:58 -73.89, -34.60 3.01 55
10 06/26/2012 19:50:16 -73.70, 56.98 06/26/2012 19:49:03 -73.65, 56.57 14.56 73
11 06/26/2012 20:39:46 73.85,-135.69 06/26/2012 20:39:38 73.85,-135.62 2.20 8
12 06/26/2012 21:29:13 -73.91, 31.80 06/26/2012 21:30:19 -73.92, 31.88 2.61 66




NCC Satellite Simultaneous Nadir Overpasses (SNOs) Prediction Service
